User: anonymous   Login
Location: *
(51.0333°S, 178.4667°E)
Time: 18:37:54
(UTC+00:00)
Language:

Cosmos 1025 Rocket - Orbit

View from above orbital plane
View from above orbital plane
View from above satellite
View from above satellite

Ground track
Ground track

The orbit data is extracted from the following two-line orbital elements,

1 10974U 78067B   20025.41471817  .00000055  00000-0  32886-5 0  9993
2 10974  82.4835 347.2960 0018893  69.5184 290.8059 14.87340005249095
Epoch (UTC): 25 January 2020 09:57:11
Eccentricity: 0.0018893
inclination: 82.4835°
perigee height: 593 km
apogee height: 619 km
right ascension of ascending node: 347.2960°
argument of perigee: 69.5184°
revolutions per day: 14.87340005
mean anomaly at epoch: 290.8059°
orbit number at epoch: 24909

The dashed part of the orbit path shows where the satellite is in the earth's shadow,  

DLR